Weather History for KPGA - November, 2011

Change the Weather History Date:

Wednesday, November 16, 2011

  Actual Average (KBCE) Record (KBCE)
Temperature  
Mean Temperature 48 °F -  
Max Temperature 55 °F 43 °F - (-1)
Min Temperature 39 °F 17 °F - (-1)
Degree Days  
Heating Degree Days 17    
Moisture  
Dew Point 24 °F    
Average Humidity 40    
Maximum Humidity 58    
Minimum Humidity 24    
Precipitation  
Precipitation 0.00 in - - ()
Sea Level Pressure  
Sea Level Pressure 30.16 in    
Wind  
Wind Speed 2 mph (North)    
Max Wind Speed 6 mph    
Max Gust Speed -    
Visibility 10 miles    
Events      
Averages and records for this station are not official NWS values.
T = Trace of Precipitation, MM = Missing Value Source: NWS Daily Summary

Daily Weather History Graph

Daily Weather History Graph

Search for Another Location

Airport or City:

Trip Planner

Search our weather history database for the weather conditions in past years. The results will help you decide how hot, cold, wet, or windy it might be!

Date:

Astronomy

Nov. 16, 2011 Rise Set
Actual Time 7:05 AM MST 5:15 PM MST
Civil Twilight 6:37 AM MST 5:43 PM MST
Nautical Twilight 6:05 AM MST 6:14 PM MST
Astronomical Twilight 5:35 AM MST 6:45 PM MST
Moon 10:32 PM MST (11/16) 11:43 AM MST (11/16)
Length of Visible Light 11h 06m
Length of Day
10h 10m
Waning Gibbous, 69% of the Moon is Illuminated
Nov 16
Waning Gibbous
Nov 18
Last Quarter
Nov 24
New
Dec 2
First Quarter
Dec 10
Full

Hourly Weather History & Observations

Time (MST) Temp. Windchill Dew Point Humidity Pressure Visibility Wind Dir Wind Speed Gust Speed Precip Events Conditions
12:53 AM 50.0 °F - 28.9 °F 44% 29.98 in 10.0 mi Calm Calm - N/A   Clear
1:53 AM 48.9 °F - 26.1 °F 41% 29.99 in 10.0 mi West 5.8 mph - N/A   Clear
2:53 AM 45.0 °F - 27.0 °F 49% 30.00 in 10.0 mi Calm Calm - N/A   Clear
3:53 AM 44.1 °F - 27.0 °F 51% 30.03 in 10.0 mi Calm Calm - N/A   Clear
4:53 AM 44.6 °F 42.2 °F 24.8 °F 46% 30.13 in 10.0 mi West 4.6 mph - N/A   Clear
5:53 AM 43.0 °F - 23.0 °F 45% 30.09 in 10.0 mi Calm Calm - N/A   Clear
6:53 AM 43.0 °F 39.5 °F 21.0 °F 42% 30.12 in 10.0 mi NW 5.8 mph - N/A   Clear
7:53 AM 44.1 °F - 21.9 °F 42% 30.16 in 10.0 mi Calm Calm - N/A   Clear
8:53 AM 46.4 °F 44.3 °F 21.2 °F 37% 30.25 in 10.0 mi NNW 4.6 mph - N/A   Clear
9:53 AM 48.9 °F - 21.0 °F 33% 30.20 in 10.0 mi NNW 4.6 mph - N/A   Clear
10:53 AM 51.1 °F - 24.1 °F 35% 30.21 in 10.0 mi East 3.5 mph - N/A   Clear
11:53 AM 53.1 °F - 24.1 °F 32% 30.19 in 10.0 mi Calm Calm - N/A   Clear
12:53 PM 54.0 °F - 23.0 °F 30% 30.17 in 10.0 mi NE 4.6 mph - N/A   Clear
1:53 PM 55.4 °F - 21.2 °F 26% 30.23 in 10.0 mi NNE 3.5 mph - N/A   Clear
2:53 PM 55.0 °F - 19.9 °F 25% 30.17 in 10.0 mi North 3.5 mph - N/A   Clear
3:53 PM 55.9 °F - 19.0 °F 24% 30.17 in 10.0 mi NNE 3.5 mph - N/A   Clear
4:53 PM 53.6 °F - 21.2 °F 28% 30.23 in 10.0 mi Calm Calm - N/A   Clear
5:53 PM 48.0 °F - 24.1 °F 39% 30.19 in 10.0 mi Calm Calm - N/A   Clear
6:53 PM 46.0 °F - 25.0 °F 44% 30.22 in 10.0 mi Calm Calm - N/A   Clear
7:53 PM 45.0 °F - 24.1 °F 44% 30.22 in 10.0 mi Calm Calm - N/A   Clear
8:53 PM 45.0 °F 42.6 °F 24.1 °F 44% 30.22 in 10.0 mi South 4.6 mph - N/A   Clear
9:53 PM 43.0 °F - 23.0 °F 45% 30.23 in 8.0 mi Calm Calm - N/A   Clear
10:53 PM 41.0 °F - 25.0 °F 53% 30.23 in 10.0 mi Calm Calm - N/A   Clear
11:53 PM 39.9 °F - 26.1 °F 58% 30.22 in 9.0 mi Calm Calm - N/A   Clear